#datetime,building,power
2023-09-30T00:00:00,rvs,17.79
2023-09-30T00:01:00,rvs,17.27
2023-09-30T00:02:00,rvs,12.76
2023-09-30T00:03:00,rvs,12.49
2023-09-30T00:04:00,rvs,12.95
2023-09-30T00:05:00,rvs,12.78
2023-09-30T00:06:00,rvs,12.99
2023-09-30T00:07:00,rvs,13.36
2023-09-30T00:08:00,rvs,13.67
2023-09-30T00:09:00,rvs,13.77
2023-09-30T00:10:00,rvs,13.33
2023-09-30T00:11:00,rvs,13.39
2023-09-30T00:12:00,rvs,13.13
2023-09-30T00:13:00,rvs,13.10
2023-09-30T00:14:00,rvs,12.85
2023-09-30T00:15:00,rvs,12.74
2023-09-30T00:16:00,rvs,13.34
2023-09-30T00:17:00,rvs,13.38
2023-09-30T00:18:00,rvs,13.37
2023-09-30T00:19:00,rvs,13.28
2023-09-30T00:20:00,rvs,12.71
2023-09-30T00:21:00,rvs,12.75
2023-09-30T00:22:00,rvs,12.34
2023-09-30T00:23:00,rvs,12.42
2023-09-30T00:24:00,rvs,12.47
2023-09-30T00:25:00,rvs,12.50
2023-09-30T00:26:00,rvs,12.51
2023-09-30T00:27:00,rvs,13.12
2023-09-30T00:28:00,rvs,13.02
2023-09-30T00:29:00,rvs,13.00
2023-09-30T00:30:00,rvs,12.97
2023-09-30T00:31:00,rvs,17.77
2023-09-30T00:32:00,rvs,17.72
2023-09-30T00:33:00,rvs,17.97
2023-09-30T00:34:00,rvs,18.12
2023-09-30T00:35:00,rvs,17.64
2023-09-30T00:36:00,rvs,17.53
2023-09-30T00:37:00,rvs,17.63
2023-09-30T00:38:00,rvs,17.60
2023-09-30T00:39:00,rvs,18.49
2023-09-30T00:40:00,rvs,17.91
2023-09-30T00:41:00,rvs,13.87
2023-09-30T00:42:00,rvs,17.60
2023-09-30T00:43:00,rvs,13.22
2023-09-30T00:44:00,rvs,17.71
2023-09-30T00:45:00,rvs,19.32
2023-09-30T00:46:00,rvs,14.76
2023-09-30T00:47:00,rvs,19.11
2023-09-30T00:48:00,rvs,15.11
2023-09-30T00:49:00,rvs,19.53
2023-09-30T00:50:00,rvs,16.01
2023-09-30T00:51:00,rvs,16.53
2023-09-30T00:52:00,rvs,22.08
2023-09-30T00:53:00,rvs,17.65
2023-09-30T00:54:00,rvs,21.35
2023-09-30T00:55:00,rvs,21.43
2023-09-30T00:56:00,rvs,17.77
2023-09-30T00:57:00,rvs,17.65
2023-09-30T00:58:00,rvs,16.31
2023-09-30T00:59:00,rvs,16.44
2023-09-30T01:00:00,rvs,16.43
2023-09-30T01:01:00,rvs,16.67
2023-09-30T01:02:00,rvs,16.57
2023-09-30T01:03:00,rvs,17.50
2023-09-30T01:04:00,rvs,17.21
2023-09-30T01:05:00,rvs,17.31
2023-09-30T01:06:00,rvs,17.25
2023-09-30T01:07:00,rvs,13.25
2023-09-30T01:08:00,rvs,13.40
2023-09-30T01:09:00,rvs,13.41
2023-09-30T01:10:00,rvs,13.30
2023-09-30T01:11:00,rvs,12.93
2023-09-30T01:12:00,rvs,13.13
2023-09-30T01:13:00,rvs,13.35
2023-09-30T01:14:00,rvs,13.06
2023-09-30T01:15:00,rvs,12.89
2023-09-30T01:16:00,rvs,12.99
2023-09-30T01:17:00,rvs,12.98
2023-09-30T01:18:00,rvs,12.69
2023-09-30T01:19:00,rvs,13.12
2023-09-30T01:20:00,rvs,12.96
2023-09-30T01:21:00,rvs,12.50
2023-09-30T01:22:00,rvs,12.54
2023-09-30T01:23:00,rvs,16.98
2023-09-30T01:24:00,rvs,16.24
2023-09-30T01:25:00,rvs,29.38
2023-09-30T01:26:00,rvs,28.96
2023-09-30T01:27:00,rvs,28.94
2023-09-30T01:28:00,rvs,24.72
2023-09-30T01:29:00,rvs,16.26
2023-09-30T01:30:00,rvs,12.43
2023-09-30T01:31:00,rvs,16.51
2023-09-30T01:32:00,rvs,12.40
2023-09-30T01:33:00,rvs,16.18
2023-09-30T01:34:00,rvs,16.22
2023-09-30T01:35:00,rvs,11.87
2023-09-30T01:36:00,rvs,22.07
2023-09-30T01:37:00,rvs,16.39
2023-09-30T01:38:00,rvs,20.21
2023-09-30T01:39:00,rvs,11.61
2023-09-30T01:40:00,rvs,11.56
2023-09-30T01:41:00,rvs,15.69
2023-09-30T01:42:00,rvs,11.74
2023-09-30T01:43:00,rvs,15.53
2023-09-30T01:44:00,rvs,12.01
2023-09-30T01:45:00,rvs,16.31
2023-09-30T01:46:00,rvs,12.23
2023-09-30T01:47:00,rvs,12.41
2023-09-30T01:48:00,rvs,16.60
2023-09-30T01:49:00,rvs,12.37
2023-09-30T01:50:00,rvs,16.32
2023-09-30T01:51:00,rvs,12.49
2023-09-30T01:52:00,rvs,16.45
2023-09-30T01:53:00,rvs,12.81
2023-09-30T01:54:00,rvs,13.26
2023-09-30T01:55:00,rvs,12.99
2023-09-30T01:56:00,rvs,12.32
2023-09-30T01:57:00,rvs,12.38
2023-09-30T01:58:00,rvs,12.22
2023-09-30T01:59:00,rvs,12.09
2023-09-30T02:00:00,rvs,13.32
2023-09-30T02:01:00,rvs,12.57
2023-09-30T02:02:00,rvs,13.31
2023-09-30T02:03:00,rvs,12.97
2023-09-30T02:04:00,rvs,12.58
2023-09-30T02:05:00,rvs,12.75
2023-09-30T02:06:00,rvs,12.40
2023-09-30T02:07:00,rvs,11.90
2023-09-30T02:08:00,rvs,11.91
2023-09-30T02:09:00,rvs,12.14
2023-09-30T02:10:00,rvs,11.88
2023-09-30T02:11:00,rvs,12.22
2023-09-30T02:12:00,rvs,12.05
2023-09-30T02:13:00,rvs,11.59
2023-09-30T02:14:00,rvs,11.41
2023-09-30T02:15:00,rvs,12.01
2023-09-30T02:16:00,rvs,11.44
2023-09-30T02:17:00,rvs,11.93
2023-09-30T02:18:00,rvs,11.48
2023-09-30T02:19:00,rvs,11.48
2023-09-30T02:20:00,rvs,11.70
2023-09-30T02:21:00,rvs,11.42
2023-09-30T02:22:00,rvs,11.64
2023-09-30T02:23:00,rvs,12.33
2023-09-30T02:24:00,rvs,12.12
2023-09-30T02:25:00,rvs,12.08
2023-09-30T02:26:00,rvs,11.32
2023-09-30T02:27:00,rvs,11.14
2023-09-30T02:28:00,rvs,11.14
2023-09-30T02:29:00,rvs,11.25
2023-09-30T02:30:00,rvs,11.20
2023-09-30T02:31:00,rvs,11.02
2023-09-30T02:32:00,rvs,11.15
2023-09-30T02:33:00,rvs,11.51
2023-09-30T02:34:00,rvs,11.61
2023-09-30T02:35:00,rvs,11.43
2023-09-30T02:36:00,rvs,11.39
2023-09-30T02:37:00,rvs,11.41
2023-09-30T02:38:00,rvs,11.36
2023-09-30T02:39:00,rvs,11.24
2023-09-30T02:40:00,rvs,11.17
2023-09-30T02:41:00,rvs,11.15
2023-09-30T02:42:00,rvs,11.16
2023-09-30T02:43:00,rvs,11.06
2023-09-30T02:44:00,rvs,11.06
2023-09-30T02:45:00,rvs,11.05
2023-09-30T02:46:00,rvs,11.12
2023-09-30T02:47:00,rvs,11.21
2023-09-30T02:48:00,rvs,11.26
2023-09-30T02:49:00,rvs,11.96
2023-09-30T02:50:00,rvs,11.47
2023-09-30T02:51:00,rvs,11.41
2023-09-30T02:52:00,rvs,11.73
2023-09-30T02:53:00,rvs,11.63
2023-09-30T02:54:00,rvs,11.45
2023-09-30T02:55:00,rvs,11.21
2023-09-30T02:56:00,rvs,10.84
2023-09-30T02:57:00,rvs,11.03
2023-09-30T02:58:00,rvs,10.92
2023-09-30T02:59:00,rvs,11.01
2023-09-30T03:00:00,rvs,11.08
2023-09-30T03:01:00,rvs,11.13
2023-09-30T03:02:00,rvs,10.98
2023-09-30T03:03:00,rvs,10.91
2023-09-30T03:04:00,rvs,10.72
2023-09-30T03:05:00,rvs,11.02
2023-09-30T03:06:00,rvs,11.09
2023-09-30T03:07:00,rvs,11.23
2023-09-30T03:08:00,rvs,11.18
2023-09-30T03:09:00,rvs,11.32
2023-09-30T03:10:00,rvs,11.35
2023-09-30T03:11:00,rvs,11.25
2023-09-30T03:12:00,rvs,15.90
2023-09-30T03:13:00,rvs,15.78
2023-09-30T03:14:00,rvs,15.78
2023-09-30T03:15:00,rvs,15.81
2023-09-30T03:16:00,rvs,11.40
2023-09-30T03:17:00,rvs,11.43
2023-09-30T03:18:00,rvs,11.71
2023-09-30T03:19:00,rvs,11.48
2023-09-30T03:20:00,rvs,12.61
2023-09-30T03:21:00,rvs,12.66
2023-09-30T03:22:00,rvs,12.64
2023-09-30T03:23:00,rvs,12.63
2023-09-30T03:24:00,rvs,11.48
2023-09-30T03:25:00,rvs,12.57
2023-09-30T03:26:00,rvs,11.23
2023-09-30T03:27:00,rvs,11.21
2023-09-30T03:28:00,rvs,11.29
2023-09-30T03:29:00,rvs,10.96
2023-09-30T03:30:00,rvs,10.96
2023-09-30T03:31:00,rvs,11.00
2023-09-30T03:32:00,rvs,10.95
2023-09-30T03:33:00,rvs,10.82
2023-09-30T03:34:00,rvs,10.84
2023-09-30T03:35:00,rvs,10.84
2023-09-30T03:36:00,rvs,11.16
2023-09-30T03:37:00,rvs,11.23
2023-09-30T03:38:00,rvs,11.16
2023-09-30T03:39:00,rvs,11.28
2023-09-30T03:40:00,rvs,11.23
2023-09-30T03:41:00,rvs,11.18
2023-09-30T03:42:00,rvs,11.24
2023-09-30T03:43:00,rvs,11.32
2023-09-30T03:44:00,rvs,11.34
2023-09-30T03:45:00,rvs,11.23
2023-09-30T03:46:00,rvs,11.78
2023-09-30T03:47:00,rvs,11.75
2023-09-30T03:48:00,rvs,11.74
2023-09-30T03:49:00,rvs,11.27
2023-09-30T03:50:00,rvs,11.14
2023-09-30T03:51:00,rvs,11.24
2023-09-30T03:52:00,rvs,11.30
2023-09-30T03:53:00,rvs,11.16
2023-09-30T03:54:00,rvs,11.12
2023-09-30T03:55:00,rvs,11.46
2023-09-30T03:56:00,rvs,11.51
2023-09-30T03:57:00,rvs,11.16
2023-09-30T03:58:00,rvs,11.03
2023-09-30T03:59:00,rvs,11.34
2023-09-30T04:00:00,rvs,10.95
2023-09-30T04:01:00,rvs,10.94
2023-09-30T04:02:00,rvs,10.33
2023-09-30T04:03:00,rvs,10.73
2023-09-30T04:04:00,rvs,10.67
2023-09-30T04:05:00,rvs,10.81
2023-09-30T04:06:00,rvs,10.71
2023-09-30T04:07:00,rvs,10.78
2023-09-30T04:08:00,rvs,10.85
2023-09-30T04:09:00,rvs,11.10
2023-09-30T04:10:00,rvs,10.96
2023-09-30T04:11:00,rvs,11.17
2023-09-30T04:12:00,rvs,11.04
2023-09-30T04:13:00,rvs,11.10
2023-09-30T04:14:00,rvs,11.19
2023-09-30T04:15:00,rvs,11.11
2023-09-30T04:16:00,rvs,11.49
2023-09-30T04:17:00,rvs,11.20
2023-09-30T04:18:00,rvs,11.13
2023-09-30T04:19:00,rvs,11.02
2023-09-30T04:20:00,rvs,11.12
2023-09-30T04:21:00,rvs,11.10
2023-09-30T04:22:00,rvs,11.08
2023-09-30T04:23:00,rvs,11.08
2023-09-30T04:24:00,rvs,10.69
2023-09-30T04:25:00,rvs,10.63
2023-09-30T04:26:00,rvs,10.63
2023-09-30T04:27:00,rvs,10.98
2023-09-30T04:28:00,rvs,10.74
2023-09-30T04:29:00,rvs,10.66
2023-09-30T04:30:00,rvs,10.57
2023-09-30T04:31:00,rvs,10.39
2023-09-30T04:32:00,rvs,10.54
2023-09-30T04:33:00,rvs,10.59
2023-09-30T04:34:00,rvs,10.52
2023-09-30T04:35:00,rvs,10.61
2023-09-30T04:36:00,rvs,10.56
2023-09-30T04:37:00,rvs,15.17
2023-09-30T04:38:00,rvs,14.88
2023-09-30T04:39:00,rvs,15.01
2023-09-30T04:40:00,rvs,14.93
2023-09-30T04:41:00,rvs,10.99
2023-09-30T04:42:00,rvs,11.05
2023-09-30T04:43:00,rvs,10.95
2023-09-30T04:44:00,rvs,10.85
2023-09-30T04:45:00,rvs,10.89
2023-09-30T04:46:00,rvs,10.92
2023-09-30T04:47:00,rvs,10.72
2023-09-30T04:48:00,rvs,10.69
2023-09-30T04:49:00,rvs,10.68
2023-09-30T04:50:00,rvs,10.61
2023-09-30T04:51:00,rvs,10.58
2023-09-30T04:52:00,rvs,10.53
2023-09-30T04:53:00,rvs,10.52
2023-09-30T04:54:00,rvs,10.95
2023-09-30T04:55:00,rvs,24.58
2023-09-30T04:56:00,rvs,24.30
2023-09-30T04:57:00,rvs,24.08
2023-09-30T04:58:00,rvs,23.68
2023-09-30T04:59:00,rvs,23.93
2023-09-30T05:00:00,rvs,23.53
2023-09-30T05:01:00,rvs,10.53
2023-09-30T05:02:00,rvs,10.53
2023-09-30T05:03:00,rvs,10.37
2023-09-30T05:04:00,rvs,10.36
2023-09-30T05:05:00,rvs,10.38
2023-09-30T05:06:00,rvs,10.39
2023-09-30T05:07:00,rvs,10.29
2023-09-30T05:08:00,rvs,10.23
2023-09-30T05:09:00,rvs,10.26
2023-09-30T05:10:00,rvs,10.30
2023-09-30T05:11:00,rvs,10.88
2023-09-30T05:12:00,rvs,11.02
2023-09-30T05:13:00,rvs,11.34
2023-09-30T05:14:00,rvs,10.74
2023-09-30T05:15:00,rvs,10.84
2023-09-30T05:16:00,rvs,10.85
2023-09-30T05:17:00,rvs,10.88
2023-09-30T05:18:00,rvs,10.93
2023-09-30T05:19:00,rvs,10.86
2023-09-30T05:20:00,rvs,10.35
2023-09-30T05:21:00,rvs,10.38
2023-09-30T05:22:00,rvs,10.39
2023-09-30T05:23:00,rvs,10.34
2023-09-30T05:24:00,rvs,10.49
2023-09-30T05:25:00,rvs,10.55
2023-09-30T05:26:00,rvs,10.58
2023-09-30T05:27:00,rvs,10.46
2023-09-30T05:28:00,rvs,10.42
2023-09-30T05:29:00,rvs,10.30
2023-09-30T05:30:00,rvs,10.57
2023-09-30T05:31:00,rvs,10.51
2023-09-30T05:32:00,rvs,10.54
2023-09-30T05:33:00,rvs,10.49
2023-09-30T05:34:00,rvs,10.41
2023-09-30T05:35:00,rvs,10.45
2023-09-30T05:36:00,rvs,10.76
2023-09-30T05:37:00,rvs,10.19
2023-09-30T05:38:00,rvs,10.26
2023-09-30T05:39:00,rvs,10.14
2023-09-30T05:40:00,rvs,10.20
2023-09-30T05:41:00,rvs,10.02
2023-09-30T05:42:00,rvs,9.92
2023-09-30T05:43:00,rvs,9.93
2023-09-30T05:44:00,rvs,10.39
2023-09-30T05:45:00,rvs,10.10
2023-09-30T05:46:00,rvs,10.08
2023-09-30T05:47:00,rvs,10.09
2023-09-30T05:48:00,rvs,10.27
2023-09-30T05:49:00,rvs,10.17
2023-09-30T05:50:00,rvs,10.37
2023-09-30T05:51:00,rvs,10.27
2023-09-30T05:52:00,rvs,10.31
2023-09-30T05:53:00,rvs,10.22
2023-09-30T05:54:00,rvs,10.02
2023-09-30T05:55:00,rvs,10.50
2023-09-30T05:56:00,rvs,11.11
2023-09-30T05:57:00,rvs,15.49
2023-09-30T05:58:00,rvs,15.41
2023-09-30T05:59:00,rvs,15.47
2023-09-30T06:00:00,rvs,15.48
2023-09-30T06:01:00,rvs,10.98
2023-09-30T06:02:00,rvs,11.16
2023-09-30T06:03:00,rvs,11.02
2023-09-30T06:04:00,rvs,10.95
2023-09-30T06:05:00,rvs,11.20
2023-09-30T06:06:00,rvs,11.17
2023-09-30T06:07:00,rvs,11.23
2023-09-30T06:08:00,rvs,11.18
2023-09-30T06:09:00,rvs,11.35
2023-09-30T06:10:00,rvs,11.33
2023-09-30T06:11:00,rvs,11.42
2023-09-30T06:12:00,rvs,11.17
2023-09-30T06:13:00,rvs,11.46
2023-09-30T06:14:00,rvs,11.70
2023-09-30T06:15:00,rvs,11.36
2023-09-30T06:16:00,rvs,11.10
2023-09-30T06:17:00,rvs,10.82
2023-09-30T06:18:00,rvs,11.11
2023-09-30T06:19:00,rvs,10.75
2023-09-30T06:20:00,rvs,10.88
2023-09-30T06:21:00,rvs,10.89
2023-09-30T06:22:00,rvs,11.10
2023-09-30T06:23:00,rvs,10.44
2023-09-30T06:24:00,rvs,10.45
2023-09-30T06:25:00,rvs,10.40
2023-09-30T06:26:00,rvs,10.39
2023-09-30T06:27:00,rvs,10.52
2023-09-30T06:28:00,rvs,10.48
2023-09-30T06:29:00,rvs,10.28
2023-09-30T06:30:00,rvs,10.38
2023-09-30T06:31:00,rvs,10.10
2023-09-30T06:32:00,rvs,10.11
2023-09-30T06:33:00,rvs,10.22
2023-09-30T06:34:00,rvs,10.18
2023-09-30T06:35:00,rvs,10.09
2023-09-30T06:36:00,rvs,10.19
2023-09-30T06:37:00,rvs,10.30
2023-09-30T06:38:00,rvs,10.33
2023-09-30T06:39:00,rvs,10.26
2023-09-30T06:40:00,rvs,10.24
2023-09-30T06:41:00,rvs,10.43
2023-09-30T06:42:00,rvs,10.37
2023-09-30T06:43:00,rvs,10.33
2023-09-30T06:44:00,rvs,10.30
2023-09-30T06:45:00,rvs,10.41
2023-09-30T06:46:00,rvs,10.58
2023-09-30T06:47:00,rvs,10.61
2023-09-30T06:48:00,rvs,10.70
2023-09-30T06:49:00,rvs,10.67
2023-09-30T06:50:00,rvs,10.91
2023-09-30T06:51:00,rvs,10.82
2023-09-30T06:52:00,rvs,10.93
2023-09-30T06:53:00,rvs,10.91
2023-09-30T06:54:00,rvs,10.33
2023-09-30T06:55:00,rvs,10.36
2023-09-30T06:56:00,rvs,10.25
2023-09-30T06:57:00,rvs,10.45
2023-09-30T06:58:00,rvs,10.93
2023-09-30T06:59:00,rvs,10.87
2023-09-30T07:00:00,rvs,10.89
2023-09-30T07:01:00,rvs,10.87
2023-09-30T07:02:00,rvs,11.04
2023-09-30T07:03:00,rvs,10.80
2023-09-30T07:04:00,rvs,10.66
2023-09-30T07:05:00,rvs,12.30
2023-09-30T07:06:00,rvs,10.75
2023-09-30T07:07:00,rvs,10.84
2023-09-30T07:08:00,rvs,10.84
2023-09-30T07:09:00,rvs,10.51
2023-09-30T07:10:00,rvs,10.55
2023-09-30T07:11:00,rvs,10.59
2023-09-30T07:12:00,rvs,10.75
2023-09-30T07:13:00,rvs,10.75
2023-09-30T07:14:00,rvs,10.71
2023-09-30T07:15:00,rvs,10.64
2023-09-30T07:16:00,rvs,15.40
2023-09-30T07:17:00,rvs,15.08
2023-09-30T07:18:00,rvs,15.26
2023-09-30T07:19:00,rvs,14.43
2023-09-30T07:20:00,rvs,9.96
2023-09-30T07:21:00,rvs,9.85
2023-09-30T07:22:00,rvs,9.89
2023-09-30T07:23:00,rvs,9.98
2023-09-30T07:24:00,rvs,10.04
2023-09-30T07:25:00,rvs,10.00
2023-09-30T07:26:00,rvs,10.04
2023-09-30T07:27:00,rvs,10.02
2023-09-30T07:28:00,rvs,10.03
2023-09-30T07:29:00,rvs,9.96
2023-09-30T07:30:00,rvs,9.97
2023-09-30T07:31:00,rvs,9.90
2023-09-30T07:32:00,rvs,10.04
2023-09-30T07:33:00,rvs,10.02
2023-09-30T07:34:00,rvs,10.11
2023-09-30T07:35:00,rvs,10.14
2023-09-30T07:36:00,rvs,10.21
2023-09-30T07:37:00,rvs,10.21
2023-09-30T07:38:00,rvs,10.59
2023-09-30T07:39:00,rvs,10.30
2023-09-30T07:40:00,rvs,10.42
2023-09-30T07:41:00,rvs,9.89
2023-09-30T07:42:00,rvs,9.89
2023-09-30T07:43:00,rvs,10.00
2023-09-30T07:44:00,rvs,10.00
2023-09-30T07:45:00,rvs,10.42
2023-09-30T07:46:00,rvs,23.75
2023-09-30T07:47:00,rvs,23.40
2023-09-30T07:48:00,rvs,23.11
2023-09-30T07:49:00,rvs,22.95
2023-09-30T07:50:00,rvs,10.48
2023-09-30T07:51:00,rvs,10.47
2023-09-30T07:52:00,rvs,10.47
2023-09-30T07:53:00,rvs,11.25
2023-09-30T07:54:00,rvs,11.28
2023-09-30T07:55:00,rvs,11.27
2023-09-30T07:56:00,rvs,11.45
2023-09-30T07:57:00,rvs,11.40
2023-09-30T07:58:00,rvs,10.97
2023-09-30T07:59:00,rvs,11.03
2023-09-30T08:00:00,rvs,10.95
2023-09-30T08:01:00,rvs,10.82
2023-09-30T08:02:00,rvs,10.80
2023-09-30T08:03:00,rvs,10.69
2023-09-30T08:04:00,rvs,10.51
2023-09-30T08:05:00,rvs,10.39
2023-09-30T08:06:00,rvs,10.42
2023-09-30T08:07:00,rvs,10.29
2023-09-30T08:08:00,rvs,10.37
2023-09-30T08:09:00,rvs,10.43
2023-09-30T08:10:00,rvs,10.42
2023-09-30T08:11:00,rvs,10.86
2023-09-30T08:12:00,rvs,12.76
2023-09-30T08:13:00,rvs,12.11
2023-09-30T08:14:00,rvs,12.31
2023-09-30T08:15:00,rvs,12.29
2023-09-30T08:16:00,rvs,12.45
2023-09-30T08:17:00,rvs,12.42
2023-09-30T08:18:00,rvs,12.50
2023-09-30T08:19:00,rvs,12.49
2023-09-30T08:20:00,rvs,12.72
2023-09-30T08:21:00,rvs,12.31
2023-09-30T08:22:00,rvs,12.52
2023-09-30T08:23:00,rvs,12.86
2023-09-30T08:24:00,rvs,13.13
2023-09-30T08:25:00,rvs,12.58
2023-09-30T08:26:00,rvs,13.02
2023-09-30T08:27:00,rvs,12.34
2023-09-30T08:28:00,rvs,12.34
2023-09-30T08:29:00,rvs,12.35
2023-09-30T08:30:00,rvs,12.44
2023-09-30T08:31:00,rvs,12.41
2023-09-30T08:32:00,rvs,16.93
2023-09-30T08:33:00,rvs,16.98
2023-09-30T08:34:00,rvs,17.02
2023-09-30T08:35:00,rvs,13.06
2023-09-30T08:36:00,rvs,13.14
2023-09-30T08:37:00,rvs,12.55
2023-09-30T08:38:00,rvs,12.44
2023-09-30T08:39:00,rvs,12.87
2023-09-30T08:40:00,rvs,13.05
2023-09-30T08:41:00,rvs,13.10
2023-09-30T08:42:00,rvs,12.96
2023-09-30T08:43:00,rvs,12.97
2023-09-30T08:44:00,rvs,13.15
2023-09-30T08:45:00,rvs,11.95
2023-09-30T08:46:00,rvs,11.92
2023-09-30T08:47:00,rvs,11.96
2023-09-30T08:48:00,rvs,11.99
2023-09-30T08:49:00,rvs,12.37
2023-09-30T08:50:00,rvs,12.81
2023-09-30T08:51:00,rvs,11.94
2023-09-30T08:52:00,rvs,12.24
2023-09-30T08:53:00,rvs,11.81
2023-09-30T08:54:00,rvs,12.07
2023-09-30T08:55:00,rvs,12.57
2023-09-30T08:56:00,rvs,11.66
2023-09-30T08:57:00,rvs,11.75
2023-09-30T08:58:00,rvs,11.30
2023-09-30T08:59:00,rvs,11.59
2023-09-30T09:00:00,rvs,11.39
2023-09-30T09:01:00,rvs,11.29
2023-09-30T09:02:00,rvs,11.54
2023-09-30T09:03:00,rvs,11.19
2023-09-30T09:04:00,rvs,11.77
2023-09-30T09:05:00,rvs,11.81
2023-09-30T09:06:00,rvs,11.55
2023-09-30T09:07:00,rvs,13.28
2023-09-30T09:08:00,rvs,11.76
2023-09-30T09:09:00,rvs,11.80
2023-09-30T09:10:00,rvs,12.19
2023-09-30T09:11:00,rvs,12.40
2023-09-30T09:12:00,rvs,12.57
2023-09-30T09:13:00,rvs,13.70
2023-09-30T09:14:00,rvs,14.00
2023-09-30T09:15:00,rvs,15.52
2023-09-30T09:16:00,rvs,15.67
2023-09-30T09:17:00,rvs,15.06
2023-09-30T09:18:00,rvs,14.95
2023-09-30T09:19:00,rvs,15.60
2023-09-30T09:20:00,rvs,16.52
2023-09-30T09:21:00,rvs,17.04
2023-09-30T09:22:00,rvs,17.69
2023-09-30T09:23:00,rvs,17.05
2023-09-30T09:24:00,rvs,17.24
2023-09-30T09:25:00,rvs,16.71
2023-09-30T09:26:00,rvs,17.31
2023-09-30T09:27:00,rvs,12.23
2023-09-30T09:28:00,rvs,12.06
2023-09-30T09:29:00,rvs,12.00
2023-09-30T09:30:00,rvs,12.14
2023-09-30T09:31:00,rvs,12.22
2023-09-30T09:32:00,rvs,12.21
2023-09-30T09:33:00,rvs,12.59
2023-09-30T09:34:00,rvs,12.57
2023-09-30T09:35:00,rvs,12.82
2023-09-30T09:36:00,rvs,13.08
2023-09-30T09:37:00,rvs,13.85
2023-09-30T09:38:00,rvs,12.85
2023-09-30T09:39:00,rvs,12.45
2023-09-30T09:40:00,rvs,12.35
2023-09-30T09:41:00,rvs,12.24
2023-09-30T09:42:00,rvs,32.52
2023-09-30T09:43:00,rvs,12.66
2023-09-30T09:44:00,rvs,13.92
2023-09-30T09:45:00,rvs,25.89
2023-09-30T09:46:00,rvs,26.72
2023-09-30T09:47:00,rvs,25.14
2023-09-30T09:48:00,rvs,25.15
2023-09-30T09:49:00,rvs,12.84
2023-09-30T09:50:00,rvs,12.61
2023-09-30T09:51:00,rvs,11.99
2023-09-30T09:52:00,rvs,11.71
2023-09-30T09:53:00,rvs,11.68
2023-09-30T09:54:00,rvs,11.69
2023-09-30T09:55:00,rvs,15.93
2023-09-30T09:56:00,rvs,16.05
2023-09-30T09:57:00,rvs,15.89
2023-09-30T09:58:00,rvs,16.02
2023-09-30T09:59:00,rvs,11.89
2023-09-30T10:00:00,rvs,11.64
2023-09-30T10:01:00,rvs,11.78
2023-09-30T10:02:00,rvs,11.54
2023-09-30T10:03:00,rvs,11.35
2023-09-30T10:04:00,rvs,11.24
2023-09-30T10:05:00,rvs,11.32
2023-09-30T10:06:00,rvs,12.96
2023-09-30T10:07:00,rvs,12.42
2023-09-30T10:08:00,rvs,11.01
2023-09-30T10:09:00,rvs,11.04
2023-09-30T10:10:00,rvs,11.14
2023-09-30T10:11:00,rvs,11.24
2023-09-30T10:12:00,rvs,11.21
2023-09-30T10:13:00,rvs,11.11
2023-09-30T10:14:00,rvs,11.81
2023-09-30T10:15:00,rvs,11.82
2023-09-30T10:16:00,rvs,11.75
2023-09-30T10:17:00,rvs,12.69
2023-09-30T10:18:00,rvs,11.48
2023-09-30T10:19:00,rvs,11.52
2023-09-30T10:20:00,rvs,11.71
2023-09-30T10:21:00,rvs,11.82
2023-09-30T10:22:00,rvs,11.66
2023-09-30T10:23:00,rvs,11.60
2023-09-30T10:24:00,rvs,12.20
2023-09-30T10:25:00,rvs,12.50
2023-09-30T10:26:00,rvs,12.65
2023-09-30T10:27:00,rvs,14.23
2023-09-30T10:28:00,rvs,13.81
2023-09-30T10:29:00,rvs,14.01
2023-09-30T10:30:00,rvs,12.50
2023-09-30T10:31:00,rvs,11.94
2023-09-30T10:32:00,rvs,12.29
2023-09-30T10:33:00,rvs,12.40
2023-09-30T10:34:00,rvs,12.10
2023-09-30T10:35:00,rvs,12.44
2023-09-30T10:36:00,rvs,12.26
2023-09-30T10:37:00,rvs,12.32
2023-09-30T10:38:00,rvs,11.42
2023-09-30T10:39:00,rvs,11.35
2023-09-30T10:40:00,rvs,11.91
2023-09-30T10:41:00,rvs,13.04
2023-09-30T10:42:00,rvs,12.87
2023-09-30T10:43:00,rvs,12.85
2023-09-30T10:44:00,rvs,12.84
2023-09-30T10:45:00,rvs,13.04
2023-09-30T10:46:00,rvs,12.82
2023-09-30T10:47:00,rvs,11.89
2023-09-30T10:48:00,rvs,12.16
2023-09-30T10:49:00,rvs,12.10
2023-09-30T10:50:00,rvs,12.25
2023-09-30T10:51:00,rvs,11.80
2023-09-30T10:52:00,rvs,11.00
2023-09-30T10:53:00,rvs,11.33
2023-09-30T10:54:00,rvs,11.25
2023-09-30T10:55:00,rvs,11.21
2023-09-30T10:56:00,rvs,12.33
2023-09-30T10:57:00,rvs,13.72
2023-09-30T10:58:00,rvs,13.70
2023-09-30T10:59:00,rvs,11.95
2023-09-30T11:00:00,rvs,11.04
2023-09-30T11:01:00,rvs,11.11
2023-09-30T11:02:00,rvs,11.25
2023-09-30T11:03:00,rvs,11.21
2023-09-30T11:04:00,rvs,11.07
2023-09-30T11:05:00,rvs,11.29
2023-09-30T11:06:00,rvs,11.45
2023-09-30T11:07:00,rvs,11.80
2023-09-30T11:08:00,rvs,11.63
2023-09-30T11:09:00,rvs,11.82
2023-09-30T11:10:00,rvs,11.37
2023-09-30T11:11:00,rvs,11.60
2023-09-30T11:12:00,rvs,11.32
2023-09-30T11:13:00,rvs,11.13
2023-09-30T11:14:00,rvs,10.65
2023-09-30T11:15:00,rvs,10.79
2023-09-30T11:16:00,rvs,11.02
2023-09-30T11:17:00,rvs,10.58
2023-09-30T11:18:00,rvs,12.66
2023-09-30T11:19:00,rvs,13.27
2023-09-30T11:20:00,rvs,13.80
2023-09-30T11:21:00,rvs,14.01
2023-09-30T11:22:00,rvs,14.55
2023-09-30T11:23:00,rvs,14.90
2023-09-30T11:24:00,rvs,15.64
2023-09-30T11:25:00,rvs,15.86
2023-09-30T11:26:00,rvs,15.47
2023-09-30T11:27:00,rvs,20.64
2023-09-30T11:28:00,rvs,20.57
2023-09-30T11:29:00,rvs,20.91
2023-09-30T11:30:00,rvs,11.98
2023-09-30T11:31:00,rvs,11.85
2023-09-30T11:32:00,rvs,11.00
2023-09-30T11:33:00,rvs,11.34
2023-09-30T11:34:00,rvs,11.38
2023-09-30T11:35:00,rvs,11.03
2023-09-30T11:36:00,rvs,11.35
2023-09-30T11:37:00,rvs,11.69
2023-09-30T11:38:00,rvs,12.14
2023-09-30T11:39:00,rvs,11.85
2023-09-30T11:40:00,rvs,11.10
2023-09-30T11:41:00,rvs,11.63
2023-09-30T11:42:00,rvs,11.65
2023-09-30T11:43:00,rvs,11.42
2023-09-30T11:44:00,rvs,11.30
2023-09-30T11:45:00,rvs,10.74
2023-09-30T11:46:00,rvs,10.74
2023-09-30T11:47:00,rvs,10.69
2023-09-30T11:48:00,rvs,10.60
2023-09-30T11:49:00,rvs,10.73
2023-09-30T11:50:00,rvs,10.58
2023-09-30T11:51:00,rvs,10.75
2023-09-30T11:52:00,rvs,11.82
2023-09-30T11:53:00,rvs,12.03
2023-09-30T11:54:00,rvs,12.18
2023-09-30T11:55:00,rvs,10.89
2023-09-30T11:56:00,rvs,10.87
2023-09-30T11:57:00,rvs,10.99
2023-09-30T11:58:00,rvs,11.88
2023-09-30T11:59:00,rvs,32.40
2023-09-30T12:00:00,rvs,26.48
2023-09-30T12:01:00,rvs,25.97
2023-09-30T12:02:00,rvs,25.76
2023-09-30T12:03:00,rvs,28.25
2023-09-30T12:04:00,rvs,11.87
2023-09-30T12:05:00,rvs,11.35
2023-09-30T12:06:00,rvs,11.38
2023-09-30T12:07:00,rvs,11.62
2023-09-30T12:08:00,rvs,11.47
2023-09-30T12:09:00,rvs,11.78
2023-09-30T12:10:00,rvs,11.75
2023-09-30T12:11:00,rvs,11.76
2023-09-30T12:12:00,rvs,30.96
2023-09-30T12:13:00,rvs,11.92
2023-09-30T12:14:00,rvs,12.60
2023-09-30T12:15:00,rvs,13.68
2023-09-30T12:16:00,rvs,13.37
2023-09-30T12:17:00,rvs,13.47
2023-09-30T12:18:00,rvs,13.43
2023-09-30T12:19:00,rvs,12.20
2023-09-30T12:20:00,rvs,11.50
2023-09-30T12:21:00,rvs,12.01
2023-09-30T12:22:00,rvs,11.64
2023-09-30T12:23:00,rvs,11.69
2023-09-30T12:24:00,rvs,11.60
2023-09-30T12:25:00,rvs,11.96
2023-09-30T12:26:00,rvs,13.49
2023-09-30T12:27:00,rvs,12.74
2023-09-30T12:28:00,rvs,11.83
2023-09-30T12:29:00,rvs,12.43
2023-09-30T12:30:00,rvs,11.80
2023-09-30T12:31:00,rvs,11.83
2023-09-30T12:32:00,rvs,14.14
2023-09-30T12:33:00,rvs,14.43
2023-09-30T12:34:00,rvs,14.54
2023-09-30T12:35:00,rvs,14.28
2023-09-30T12:36:00,rvs,21.44
2023-09-30T12:37:00,rvs,13.61
2023-09-30T12:38:00,rvs,13.41
2023-09-30T12:39:00,rvs,15.45
2023-09-30T12:40:00,rvs,15.51
2023-09-30T12:41:00,rvs,16.95
2023-09-30T12:42:00,rvs,34.31
2023-09-30T12:43:00,rvs,16.78
2023-09-30T12:44:00,rvs,15.10
2023-09-30T12:45:00,rvs,15.49
2023-09-30T12:46:00,rvs,16.10
2023-09-30T12:47:00,rvs,34.16
2023-09-30T12:48:00,rvs,16.23
2023-09-30T12:49:00,rvs,16.14
2023-09-30T12:50:00,rvs,15.78
2023-09-30T12:51:00,rvs,15.84
2023-09-30T12:52:00,rvs,15.75
2023-09-30T12:53:00,rvs,33.03
2023-09-30T12:54:00,rvs,14.88
2023-09-30T12:55:00,rvs,16.26
2023-09-30T12:56:00,rvs,33.71
2023-09-30T12:57:00,rvs,14.73
2023-09-30T12:58:00,rvs,16.26
2023-09-30T12:59:00,rvs,17.85
2023-09-30T13:00:00,rvs,17.45
2023-09-30T13:01:00,rvs,18.80
2023-09-30T13:02:00,rvs,17.66
2023-09-30T13:03:00,rvs,13.76
2023-09-30T13:04:00,rvs,12.84
2023-09-30T13:05:00,rvs,12.13
2023-09-30T13:06:00,rvs,12.38
2023-09-30T13:07:00,rvs,12.29
2023-09-30T13:08:00,rvs,12.15
2023-09-30T13:09:00,rvs,13.69
2023-09-30T13:10:00,rvs,12.70
2023-09-30T13:11:00,rvs,12.76
2023-09-30T13:12:00,rvs,12.09
2023-09-30T13:13:00,rvs,12.10
2023-09-30T13:14:00,rvs,11.84
2023-09-30T13:15:00,rvs,12.34
2023-09-30T13:16:00,rvs,12.65
2023-09-30T13:17:00,rvs,12.41
2023-09-30T13:18:00,rvs,27.39